Weather History for New Ulm, MN

Change the Weather History Date:

Friday, October 12, 2012

  Actual Average Record
Temperature  
Mean Temperature 40 °F -  
Max Temperature 55 °F 62 °F 88 °F (1975)
Min Temperature 24 °F 38 °F 3 °F (1998)
Degree Days  
Heating Degree Days 26    
Moisture  
Dew Point 15 °F    
Average Humidity 41    
Maximum Humidity 80    
Minimum Humidity 14    
Precipitation  
Precipitation 0.00 in - - ()
Sea Level Pressure  
Sea Level Pressure 30.28 in    
Wind  
Wind Speed 7 mph (SSE)    
Max Wind Speed 25 mph    
Max Gust Speed 30 mph    
Visibility 10 miles    
Events Thunderstorm    
Averages and records for this station are not official NWS values.
T = Trace of Precipitation, MM = Missing Value Source: NWS Daily Summary

Daily Weather History Graph

Daily Weather History Graph

Search for Another Location

Airport:

Trip Planner

Search our weather history database for the weather conditions in past years. The results will help you decide how hot, cold, wet, or windy it might be!

Date:

Astronomy

Oct. 12, 2012 Rise Set
Actual Time 7:29 AM CDT 6:38 PM CDT
Civil Twilight 7:00 AM CDT 7:07 PM CDT
Nautical Twilight 6:27 AM CDT 7:40 PM CDT
Astronomical Twilight 5:53 AM CDT 8:14 PM CDT
Moon 4:07 AM CDT (10/12) 4:53 PM CDT (10/12)
Length of Visible Light 12h 06m
Length of Day
11h 08m
Waning Crescent, 10% of the Moon is Illuminated
Oct 12
Waning Crescent
Oct 15
New
Oct 21
First Quarter
Oct 29
Full
Nov 6
Last Quarter

Hourly Weather History & Observations

Time (CDT) Temp. Windchill Dew Point Humidity Pressure Visibility Wind Dir Wind Speed Gust Speed Precip Events Conditions
12:33 AM 30.2 °F 24.3 °F 17.6 °F 60% 30.41 in 10.0 mi WNW 5.8 mph - N/A   Clear
12:52 AM 30.2 °F 26.7 °F 17.6 °F 60% 30.41 in 10.0 mi NW 3.5 mph - N/A   Clear
1:13 AM 30.2 °F 26.7 °F 17.6 °F 60% 30.41 in 10.0 mi NW 3.5 mph - N/A   Clear
1:33 AM 28.4 °F 23.3 °F 17.6 °F 64% 30.41 in 10.0 mi NNW 4.6 mph - N/A   Clear
1:53 AM 28.4 °F 24.6 °F 17.6 °F 64% 30.41 in 10.0 mi NNW 3.5 mph - N/A   Clear
2:13 AM 28.4 °F 24.6 °F 17.6 °F 64% 30.42 in 10.0 mi NNW 3.5 mph - N/A   Clear
2:33 AM 30.2 °F 26.7 °F 17.6 °F 60% 30.42 in 10.0 mi North 3.5 mph - N/A   Clear
2:53 AM 28.4 °F - 17.6 °F 64% 30.42 in 10.0 mi Calm Calm - N/A   Clear
3:13 AM 28.4 °F - 17.6 °F 64% 30.42 in 10.0 mi Calm Calm - N/A   Clear
4:13 AM 26.6 °F - 17.6 °F 69% 30.42 in 10.0 mi Calm Calm - N/A   Clear
4:33 AM 28.4 °F - 19.4 °F 69% 30.41 in 10.0 mi Calm Calm - N/A   Clear
5:13 AM 26.6 °F - 17.6 °F 69% 30.42 in 10.0 mi Calm Calm - N/A   Clear
5:33 AM 28.4 °F - 19.4 °F 69% 30.41 in 10.0 mi Calm Calm - N/A   Clear
5:53 AM 24.8 °F - 17.6 °F 74% 30.41 in 10.0 mi Calm Calm - N/A   Clear
6:13 AM 26.6 °F - 19.4 °F 74% 30.42 in 10.0 mi Calm Calm - N/A   Clear
6:32 AM 26.6 °F - 19.4 °F 74% 30.42 in 10.0 mi Calm Calm - N/A   Clear
6:53 AM 28.4 °F - 19.4 °F 69% 30.41 in 10.0 mi Calm Calm - N/A   Clear
7:32 AM 24.8 °F - 17.6 °F 74% 30.41 in 10.0 mi Calm Calm - N/A   Clear
7:53 AM 24.8 °F - 17.6 °F 74% 30.41 in 10.0 mi Calm Calm - N/A   Clear
8:13 AM 26.6 °F - 19.4 °F 74% 30.41 in 10.0 mi Calm Calm - N/A   Clear
8:32 AM 26.6 °F - 21.2 °F 80% 30.41 in 7.0 mi Calm Calm - N/A   Clear
9:13 AM 33.8 °F 27.0 °F 21.2 °F 60% 30.40 in 10.0 mi ESE 8.1 mph - N/A   Clear
9:32 AM 37.4 °F 30.8 °F 23.0 °F 56% 30.40 in 10.0 mi SE 9.2 mph - N/A   Clear
9:53 AM 39.2 °F 33.6 °F 21.2 °F 49% 30.40 in 10.0 mi SE 8.1 mph - N/A   Clear
10:13 AM 39.2 °F 33.0 °F 21.2 °F 49% 30.39 in 10.0 mi SE 9.2 mph - N/A   Clear
10:33 AM 42.8 °F 36.6 °F 19.4 °F 39% 30.38 in 10.0 mi SE 11.5 mph 17.3 mph N/A   Clear
10:53 AM 44.6 °F 38.1 °F 17.6 °F 34% 30.38 in 10.0 mi SSE 13.8 mph - N/A   Clear
11:13 AM 46.4 °F 40.4 °F 17.6 °F 32% 30.37 in 10.0 mi SE 13.8 mph 20.7 mph N/A   Clear
11:33 AM 46.4 °F 40.7 °F 17.6 °F 32% 30.37 in 10.0 mi SSE 12.7 mph 18.4 mph N/A   Clear
12:13 PM 48.2 °F - 15.8 °F 27% 30.35 in 10.0 mi SE 13.8 mph 20.7 mph N/A   Clear
12:33 PM 50.0 °F - 15.8 °F 26% 30.34 in 10.0 mi SSE 13.8 mph 21.9 mph N/A   Clear
12:53 PM 50.0 °F - 12.2 °F 22% 30.33 in 10.0 mi SSE 13.8 mph 19.6 mph N/A   Clear
1:33 PM 51.8 °F - 8.6 °F 18% 30.30 in 10.0 mi South 16.1 mph 23.0 mph N/A   Clear
2:13 PM 53.6 °F - 8.6 °F 16% 30.28 in 10.0 mi SSE 16.1 mph 24.2 mph N/A   Clear
2:53 PM 53.6 °F - 10.4 °F 18% 30.25 in 10.0 mi South 18.4 mph 23.0 mph N/A   Clear
3:33 PM 55.4 °F - 8.6 °F 15% 30.23 in 10.0 mi South 18.4 mph 21.9 mph N/A   Clear
3:53 PM 55.4 °F - 8.6 °F 15% 30.22 in 10.0 mi SSE 18.4 mph 24.2 mph N/A   Clear
4:12 PM 55.4 °F - 8.6 °F 15% 30.20 in 10.0 mi SSE 17.3 mph - N/A   Clear
4:33 PM 55.4 °F - 8.6 °F 15% 30.19 in 10.0 mi SSE 16.1 mph - N/A   Clear
4:53 PM 55.4 °F - 6.8 °F 14% 30.18 in 10.0 mi South 17.3 mph 24.2 mph N/A   Clear
5:12 PM 55.4 °F - 6.8 °F 14% 30.16 in 10.0 mi South 17.3 mph 21.9 mph N/A   Clear
5:33 PM 53.6 °F - 8.6 °F 16% 30.16 in 10.0 mi SSE 19.6 mph - N/A   Clear
6:13 PM 53.6 °F - 6.8 °F 15% 30.13 in 10.0 mi SSE 13.8 mph - N/A   Clear
6:33 PM 51.8 °F - 8.6 °F 18% 30.11 in 10.0 mi SSE 11.5 mph 16.1 mph N/A   Clear
6:53 PM 51.8 °F - 8.6 °F 18% 30.10 in 10.0 mi SSE 12.7 mph 18.4 mph N/A   Clear
7:13 PM 50.0 °F - 8.6 °F 19% 30.10 in 10.0 mi SSE 9.2 mph - N/A   Clear
7:53 PM 51.8 °F - 8.6 °F 18% 30.08 in 10.0 mi SSE 12.7 mph 18.4 mph N/A   Overcast
8:13 PM 51.8 °F - 10.4 °F 19% 30.07 in 10.0 mi SE 13.8 mph - N/A   Mostly Cloudy
8:33 PM 51.8 °F - 10.4 °F 19% 30.06 in 10.0 mi SSE 12.7 mph 19.6 mph N/A   Overcast
8:53 PM 51.8 °F - 10.4 °F 19% 30.05 in 10.0 mi SSE 16.1 mph 21.9 mph N/A Thunderstorm Mostly Cloudy
9:13 PM 51.8 °F - 10.4 °F 19% 30.05 in 10.0 mi SSE 16.1 mph 20.7 mph N/A   Mostly Cloudy
9:33 PM 51.8 °F - 10.4 °F 19% 30.04 in 10.0 mi SSE 17.3 mph - N/A   Overcast
10:13 PM 51.8 °F - 10.4 °F 19% 30.02 in 10.0 mi SSE 15.0 mph 21.9 mph N/A   Mostly Cloudy
10:53 PM 53.6 °F - 15.8 °F 22% 30.00 in 10.0 mi SSE 18.4 mph 26.5 mph N/A   Overcast
11:13 PM 51.8 °F - 17.6 °F 26% 29.99 in 10.0 mi SSE 19.6 mph 25.3 mph N/A   Overcast
11:33 PM 51.8 °F - 19.4 °F 28% 29.98 in 10.0 mi South 25.3 mph 29.9 mph N/A   Overcast